owner,sensor,date,latitude,longitude,vertical_datum,wind_speed,wind_to_direction,wind_speed_of_gust,qcFlag 
TCOON,ioos:station:TCOON:524:1,2009-07-01T00:00:00Z,29.8672,-93.9310,0.0,2.6,199.0,3.7,'11111222,11111222,11111222' 
TCOON,ioos:station:TCOON:524:1,2009-07-01T00:06:00Z,29.8672,-93.9310,0.0,1.9,195.0,3.1,'11111222,11111222,11111222' 
TCOON,ioos:station:TCOON:524:1,2009-07-01T00:12:00Z,29.8672,-93.9310,0.0,2.6,201.0,3.5,'11111222,11111222,11111222' 
TCOON,ioos:station:TCOON:524:1,2009-07-01T00:18:00Z,29.8672,-93.9310,0.0,2.4,201.0,3.4,'11111222,11111222,11111222' 
TCOON,ioos:station:TCOON:524:1,2009-07-01T00:24:00Z,29.8672,-93.9310,0.0,3.3,207.0,4.1,'11111222,11111222,11111222' 
TCOON,ioos:station:TCOON:524:1,2009-07-01T00:30:00Z,29.8672,-93.9310,0.0,3.4,217.0,4.4,'11111222,11111222,11111222' 
TCOON,ioos:station:TCOON:524:1,2009-07-01T00:36:00Z,29.8672,-93.9310,0.0,2.9,226.0,3.7,'11111222,11111222,11111222' 
TCOON,ioos:station:TCOON:524:1,2009-07-01T00:42:00Z,29.8672,-93.9310,0.0,2.2,236.0,3.1,'11111222,11111222,11111222' 
TCOON,ioos:station:TCOON:524:1,2009-07-01T00:48:00Z,29.8672,-93.9310,0.0,0.5,231.0,1.8,'11111222,11111222,11111222' 
TCOON,ioos:station:TCOON:524:1,2009-07-01T00:54:00Z,29.8672,-93.9310,0.0,1.8,248.0,3.0,'11111222,11111222,11111222' 
TCOON,ioos:station:TCOON:524:1,2009-07-01T01:00:00Z,29.8672,-93.9310,0.0,2.6,270.0,3.4,'11111222,11111222,11111222' 
TCOON,ioos:station:TCOON:524:1,2009-07-01T02:06:00Z,29.8672,-93.9310,0.0,0.3,253.0,1.2,'11111222,11111222,11111222' 
TCOON,ioos:station:TCOON:524:1,2009-07-01T02:12:00Z,29.8672,-93.9310,0.0,0.0,254.0,0.3,'11111222,11111222,11111222' 
TCOON,ioos:station:TCOON:524:1,2009-07-01T02:18:00Z,29.8672,-93.9310,0.0,1.1,289.0,2.6,'11111222,11111222,11111222' 
TCOON,ioos:station:TCOON:524:1,2009-07-01T02:24:00Z,29.8672,-93.9310,0.0,0.7,257.0,1.6,'11111222,11111222,11111222' 
TCOON,ioos:station:TCOON:524:1,2009-07-01T02:30:00Z,29.8672,-93.9310,0.0,0.7,246.0,1.7,'11111222,11111222,11111222' 
TCOON,ioos:station:TCOON:524:1,2009-07-01T02:36:00Z,29.8672,-93.9310,0.0,1.5,269.0,2.7,'11111222,11111222,11111222' 
TCOON,ioos:station:TCOON:524:1,2009-07-01T02:42:00Z,29.8672,-93.9310,0.0,0.1,277.0,1.1,'11111222,11111222,11111222' 
TCOON,ioos:station:TCOON:524:1,2009-07-01T02:48:00Z,29.8672,-93.9310,0.0,0.0,274.0,0.2,'11111222,11111222,11111222' 
TCOON,ioos:station:TCOON:524:1,2009-07-01T02:54:00Z,29.8672,-93.9310,0.0,1.0,271.0,2.0,'11111222,11111222,11111222' 
TCOON,ioos:station:TCOON:524:1,2009-07-01T03:00:00Z,29.8672,-93.9310,0.0,1.1,270.0,2.3,'11111222,11111222,11111222' 
TCOON,ioos:station:TCOON:524:1,2009-07-01T03:06:00Z,29.8672,-93.9310,0.0,2.0,288.0,3.1,'11111222,11111222,11111222' 
TCOON,ioos:station:TCOON:524:1,2009-07-01T03:12:00Z,29.8672,-93.9310,0.0,2.0,264.0,3.3,'11111222,11111222,11111222' 
TCOON,ioos:station:TCOON:524:1,2009-07-01T03:18:00Z,29.8672,-93.9310,0.0,2.2,284.0,3.2,'11111222,11111222,11111222' 
TCOON,ioos:station:TCOON:524:1,2009-07-01T03:24:00Z,29.8672,-93.9310,0.0,1.6,283.0,3.1,'11111222,11111222,11111222' 
TCOON,ioos:station:TCOON:524:1,2009-07-01T03:30:00Z,29.8672,-93.9310,0.0,1.2,272.0,2.9,'11111222,11111222,11111222' 
TCOON,ioos:station:TCOON:524:1,2009-07-01T03:36:00Z,29.8672,-93.9310,0.0,0.0,256.0,99.0,'11111222,11111222,11144222' 
TCOON,ioos:station:TCOON:524:1,2009-07-01T03:42:00Z,29.8672,-93.9310,0.0,0.0,266.0,99.0,'11111222,11111222,11144222' 
TCOON,ioos:station:TCOON:524:1,2009-07-01T03:48:00Z,29.8672,-93.9310,0.0,0.0,291.0,99.0,'11111222,11111222,11144222' 
TCOON,ioos:station:TCOON:524:1,2009-07-01T03:54:00Z,29.8672,-93.9310,0.0,0.0,276.0,99.0,'11111222,11111222,11144222' 
TCOON,ioos:station:TCOON:524:1,2009-07-01T04:00:00Z,29.8672,-93.9310,0.0,0.0,275.0,99.0,'11111222,11111222,11144222' 
TCOON,ioos:station:TCOON:524:1,2009-07-01T04:06:00Z,29.8672,-93.9310,0.0,0.0,282.0,99.0,'11111222,11111222,11144222' 
TCOON,ioos:station:TCOON:524:1,2009-07-01T04:12:00Z,29.8672,-93.9310,0.0,0.0,290.0,99.0,'11111222,11111222,11144222' 
TCOON,ioos:station:TCOON:524:1,2009-07-01T04:18:00Z,29.8672,-93.9310,0.0,0.0,286.0,99.0,'11111222,11111222,11144222' 
TCOON,ioos:station:TCOON:524:1,2009-07-01T04:24:00Z,29.8672,-93.9310,0.0,0.0,275.0,99.0,'11111222,11111222,11144222' 
TCOON,ioos:station:TCOON:524:1,2009-07-01T04:30:00Z,29.8672,-93.9310,0.0,0.0,258.0,99.0,'11111222,11111222,11144222' 
TCOON,ioos:station:TCOON:524:1,2009-07-01T04:36:00Z,29.8672,-93.9310,0.0,0.0,150.0,99.0,'11111222,11111222,11144222' 
TCOON,ioos:station:TCOON:524:1,2009-07-01T04:42:00Z,29.8672,-93.9310,0.0,0.0,120.0,99.0,'11111222,11111222,11144222' 
TCOON,ioos:station:TCOON:524:1,2009-07-01T04:48:00Z,29.8672,-93.9310,0.0,0.0,216.0,99.0,'11111222,11111222,11144222' 
TCOON,ioos:station:TCOON:524:1,2009-07-01T04:54:00Z,29.8672,-93.9310,0.0,0.0,254.0,99.0,'11111222,11111222,11144222' 
TCOON,ioos:station:TCOON:524:1,2009-07-01T05:00:00Z,29.8672,-93.9310,0.0,0.0,237.0,99.0,'11111222,11111222,11144222' 
TCOON,ioos:station:TCOON:524:1,2009-07-01T05:06:00Z,29.8672,-93.9310,0.0,0.0,247.0,99.0,'11111222,11111222,11144222' 
TCOON,ioos:station:TCOON:524:1,2009-07-01T05:12:00Z,29.8672,-93.9310,0.0,0.0,272.0,99.0,'11111222,11111222,11144222' 
TCOON,ioos:station:TCOON:524:1,2009-07-01T05:18:00Z,29.8672,-93.9310,0.0,0.0,296.0,99.0,'11111222,11111222,11144222' 
TCOON,ioos:station:TCOON:524:1,2009-07-01T05:24:00Z,29.8672,-93.9310,0.0,0.0,355.0,99.0,'11111222,11111222,11144222' 
TCOON,ioos:station:TCOON:524:1,2009-07-01T05:30:00Z,29.8672,-93.9310,0.0,0.0,27.0,99.0,'11111222,11111222,11144222' 
TCOON,ioos:station:TCOON:524:1,2009-07-01T05:36:00Z,29.8672,-93.9310,0.0,0.0,342.0,99.0,'11111222,11111222,11144222' 
TCOON,ioos:station:TCOON:524:1,2009-07-01T05:42:00Z,29.8672,-93.9310,0.0,0.0,343.0,99.0,'11111222,11111222,11144222' 
TCOON,ioos:station:TCOON:524:1,2009-07-01T05:48:00Z,29.8672,-93.9310,0.0,0.0,311.0,99.0,'11111222,11111222,11144222' 
TCOON,ioos:station:TCOON:524:1,2009-07-01T05:54:00Z,29.8672,-93.9310,0.0,0.0,292.0,99.0,'11111222,11111222,11144222' 
TCOON,ioos:station:TCOON:524:1,2009-07-01T06:00:00Z,29.8672,-93.9310,0.0,0.0,179.0,99.0,'11111222,11111222,11144222' 
TCOON,ioos:station:TCOON:524:1,2009-07-01T06:06:00Z,29.8672,-93.9310,0.0,0.0,255.0,99.0,'11111222,11111222,11144222' 
TCOON,ioos:station:TCOON:524:1,2009-07-01T06:12:00Z,29.8672,-93.9310,0.0,0.0,252.0,99.0,'11111222,11111222,11144222' 
TCOON,ioos:station:TCOON:524:1,2009-07-01T06:18:00Z,29.8672,-93.9310,0.0,0.0,261.0,99.0,'11111222,11111222,11144222' 
TCOON,ioos:station:TCOON:524:1,2009-07-01T06:24:00Z,29.8672,-93.9310,0.0,0.0,259.0,99.0,'11111222,11111222,11144222' 
TCOON,ioos:station:TCOON:524:1,2009-07-01T06:30:00Z,29.8672,-93.9310,0.0,0.0,248.0,99.0,'11111222,11111222,11144222' 
TCOON,ioos:station:TCOON:524:1,2009-07-01T06:36:00Z,29.8672,-93.9310,0.0,0.0,267.0,99.0,'11111222,11111222,11144222' 
TCOON,ioos:station:TCOON:524:1,2009-07-01T06:42:00Z,29.8672,-93.9310,0.0,0.0,293.0,99.0,'11111222,11111222,11144222' 
TCOON,ioos:station:TCOON:524:1,2009-07-01T06:48:00Z,29.8672,-93.9310,0.0,0.0,302.0,99.0,'11111222,11111222,11144222' 
TCOON,ioos:station:TCOON:524:1,2009-07-01T06:54:00Z,29.8672,-93.9310,0.0,0.0,287.0,99.0,'11111222,11111222,11144222' 
TCOON,ioos:station:TCOON:524:1,2009-07-01T07:00:00Z,29.8672,-93.9310,0.0,0.0,298.0,99.0,'11111222,11111222,11144222' 
TCOON,ioos:station:TCOON:524:1,2009-07-01T07:06:00Z,29.8672,-93.9310,0.0,0.0,298.0,99.0,'11111222,11111222,11144222' 
TCOON,ioos:station:TCOON:524:1,2009-07-01T07:12:00Z,29.8672,-93.9310,0.0,0.0,250.0,99.0,'11111222,11111222,11144222' 
TCOON,ioos:station:TCOON:524:1,2009-07-01T07:18:00Z,29.8672,-93.9310,0.0,0.0,336.0,99.0,'11111222,11111222,11144222' 
TCOON,ioos:station:TCOON:524:1,2009-07-01T07:24:00Z,29.8672,-93.9310,0.0,0.0,329.0,99.0,'11111222,11111222,11144222' 
TCOON,ioos:station:TCOON:524:1,2009-07-01T07:30:00Z,29.8672,-93.9310,0.0,0.0,309.0,99.0,'11111222,11111222,11144222' 
TCOON,ioos:station:TCOON:524:1,2009-07-01T07:36:00Z,29.8672,-93.9310,0.0,0.0,281.0,99.0,'11111222,11111222,11144222' 
TCOON,ioos:station:TCOON:524:1,2009-07-01T07:42:00Z,29.8672,-93.9310,0.0,0.0,293.0,99.0,'11111222,11111222,11144222' 
TCOON,ioos:station:TCOON:524:1,2009-07-01T07:48:00Z,29.8672,-93.9310,0.0,0.0,283.0,99.0,'11111222,11111222,11144222' 
TCOON,ioos:station:TCOON:524:1,2009-07-01T07:54:00Z,29.8672,-93.9310,0.0,0.0,236.0,99.0,'11111222,11111222,11144222' 
TCOON,ioos:station:TCOON:524:1,2009-07-01T08:00:00Z,29.8672,-93.9310,0.0,0.0,230.0,99.0,'11111222,11111222,11144222' 
TCOON,ioos:station:TCOON:524:1,2009-07-01T08:06:00Z,29.8672,-93.9310,0.0,0.0,245.0,99.0,'11111222,11111222,11144222' 
TCOON,ioos:station:TCOON:524:1,2009-07-01T08:12:00Z,29.8672,-93.9310,0.0,0.0,252.0,99.0,'11111222,11111222,11144222' 
TCOON,ioos:station:TCOON:524:1,2009-07-01T08:18:00Z,29.8672,-93.9310,0.0,0.0,249.0,99.0,'11111222,11111222,11144222' 
TCOON,ioos:station:TCOON:524:1,2009-07-01T08:24:00Z,29.8672,-93.9310,0.0,0.0,288.0,99.0,'11111222,11111222,11144222' 
TCOON,ioos:station:TCOON:524:1,2009-07-01T08:30:00Z,29.8672,-93.9310,0.0,0.0,286.0,99.0,'11111222,11111222,11144222' 
TCOON,ioos:station:TCOON:524:1,2009-07-01T08:36:00Z,29.8672,-93.9310,0.0,0.0,252.0,99.0,'11111222,11111222,11144222' 
TCOON,ioos:station:TCOON:524:1,2009-07-01T08:42:00Z,29.8672,-93.9310,0.0,0.0,253.0,99.0,'11111222,11111222,11144222' 
TCOON,ioos:station:TCOON:524:1,2009-07-01T08:48:00Z,29.8672,-93.9310,0.0,0.0,272.0,99.0,'11111222,11111222,11144222' 
TCOON,ioos:station:TCOON:524:1,2009-07-01T08:54:00Z,29.8672,-93.9310,0.0,0.0,266.0,99.0,'11111222,11111222,11144222' 
TCOON,ioos:station:TCOON:524:1,2009-07-01T09:00:00Z,29.8672,-93.9310,0.0,0.0,253.0,99.0,'11111222,11111222,11144222' 
TCOON,ioos:station:TCOON:524:1,2009-07-01T09:06:00Z,29.8672,-93.9310,0.0,0.0,267.0,99.0,'11111222,11111222,11144222' 
TCOON,ioos:station:TCOON:524:1,2009-07-01T09:12:00Z,29.8672,-93.9310,0.0,0.0,235.0,99.0,'11111222,11111222,11144222' 
TCOON,ioos:station:TCOON:524:1,2009-07-01T09:18:00Z,29.8672,-93.9310,0.0,0.0,239.0,99.0,'11111222,11111222,11144222' 
TCOON,ioos:station:TCOON:524:1,2009-07-01T09:24:00Z,29.8672,-93.9310,0.0,0.0,237.0,99.0,'11111222,11111222,11144222' 
TCOON,ioos:station:TCOON:524:1,2009-07-01T09:30:00Z,29.8672,-93.9310,0.0,0.0,236.0,99.0,'11111222,11111222,11144222' 
TCOON,ioos:station:TCOON:524:1,2009-07-01T09:36:00Z,29.8672,-93.9310,0.0,0.0,240.0,99.0,'11111222,11111222,11144222' 
TCOON,ioos:station:TCOON:524:1,2009-07-01T09:42:00Z,29.8672,-93.9310,0.0,0.0,236.0,99.0,'11111222,11111222,11144222' 
TCOON,ioos:station:TCOON:524:1,2009-07-01T09:48:00Z,29.8672,-93.9310,0.0,0.0,250.0,99.0,'11111222,11111222,11144222' 
TCOON,ioos:station:TCOON:524:1,2009-07-01T09:54:00Z,29.8672,-93.9310,0.0,0.0,238.0,99.0,'11111222,11111222,11144222' 
TCOON,ioos:station:TCOON:524:1,2009-07-01T10:00:00Z,29.8672,-93.9310,0.0,0.0,178.0,99.0,'11111222,11111222,11144222' 
TCOON,ioos:station:TCOON:524:1,2009-07-01T10:06:00Z,29.8672,-93.9310,0.0,0.0,309.0,99.0,'11111222,11111222,11144222' 
TCOON,ioos:station:TCOON:524:1,2009-07-01T10:12:00Z,29.8672,-93.9310,0.0,0.0,335.0,99.0,'11111222,11111222,11144222' 
TCOON,ioos:station:TCOON:524:1,2009-07-01T10:18:00Z,29.8672,-93.9310,0.0,0.0,335.0,99.0,'11111222,11111222,11144222' 
TCOON,ioos:station:TCOON:524:1,2009-07-01T10:24:00Z,29.8672,-93.9310,0.0,0.0,61.0,99.0,'11111222,11111222,11144222' 
TCOON,ioos:station:TCOON:524:1,2009-07-01T10:30:00Z,29.8672,-93.9310,0.0,0.0,52.0,99.0,'11111222,11111222,11144222' 
TCOON,ioos:station:TCOON:524:1,2009-07-01T10:36:00Z,29.8672,-93.9310,0.0,0.0,56.0,99.0,'11111222,11111222,11144222' 
TCOON,ioos:station:TCOON:524:1,2009-07-01T10:42:00Z,29.8672,-93.9310,0.0,0.0,56.0,99.0,'11111222,11111222,11144222' 
TCOON,ioos:station:TCOON:524:1,2009-07-01T10:48:00Z,29.8672,-93.9310,0.0,0.0,55.0,99.0,'11111222,11111222,11144222' 
TCOON,ioos:station:TCOON:524:1,2009-07-01T10:54:00Z,29.8672,-93.9310,0.0,0.0,341.0,99.0,'11111222,11111222,11144222' 
TCOON,ioos:station:TCOON:524:1,2009-07-01T11:00:00Z,29.8672,-93.9310,0.0,0.0,293.0,99.0,'11111222,11111222,11144222' 
TCOON,ioos:station:TCOON:524:1,2009-07-01T11:06:00Z,29.8672,-93.9310,0.0,0.0,273.0,99.0,'11111222,11111222,11144222' 
TCOON,ioos:station:TCOON:524:1,2009-07-01T11:12:00Z,29.8672,-93.9310,0.0,0.0,268.0,99.0,'11111222,11111222,11144222' 
TCOON,ioos:station:TCOON:524:1,2009-07-01T11:18:00Z,29.8672,-93.9310,0.0,0.0,270.0,99.0,'11111222,11111222,11144222' 
TCOON,ioos:station:TCOON:524:1,2009-07-01T11:24:00Z,29.8672,-93.9310,0.0,0.0,230.0,99.0,'11111222,11111222,11144222' 
TCOON,ioos:station:TCOON:524:1,2009-07-01T11:30:00Z,29.8672,-93.9310,0.0,0.0,253.0,99.0,'11111222,11111222,11144222' 
TCOON,ioos:station:TCOON:524:1,2009-07-01T11:36:00Z,29.8672,-93.9310,0.0,0.0,247.0,99.0,'11111222,11111222,11144222' 
TCOON,ioos:station:TCOON:524:1,2009-07-01T11:42:00Z,29.8672,-93.9310,0.0,0.0,255.0,99.0,'11111222,11111222,11144222' 
TCOON,ioos:station:TCOON:524:1,2009-07-01T11:48:00Z,29.8672,-93.9310,0.0,0.0,243.0,99.0,'11111222,11111222,11144222' 
TCOON,ioos:station:TCOON:524:1,2009-07-01T11:54:00Z,29.8672,-93.9310,0.0,0.0,233.0,99.0,'11111222,11111222,11144222' 
TCOON,ioos:station:TCOON:524:1,2009-07-01T12:00:00Z,29.8672,-93.9310,0.0,0.0,242.0,99.0,'11111222,11111222,11144222' 
TCOON,ioos:station:TCOON:524:1,2009-07-01T12:06:00Z,29.8672,-93.9310,0.0,0.0,240.0,99.0,'11111222,11111222,11144222' 
TCOON,ioos:station:TCOON:524:1,2009-07-01T12:12:00Z,29.8672,-93.9310,0.0,0.0,258.0,99.0,'11111222,11111222,11144222' 
TCOON,ioos:station:TCOON:524:1,2009-07-01T12:18:00Z,29.8672,-93.9310,0.0,0.0,277.0,99.0,'11111222,11111222,11144222' 
TCOON,ioos:station:TCOON:524:1,2009-07-01T12:24:00Z,29.8672,-93.9310,0.0,0.0,269.0,99.0,'11111222,11111222,11144222' 
TCOON,ioos:station:TCOON:524:1,2009-07-01T12:30:00Z,29.8672,-93.9310,0.0,0.0,273.0,99.0,'11111222,11111222,11144222' 
TCOON,ioos:station:TCOON:524:1,2009-07-01T12:36:00Z,29.8672,-93.9310,0.0,1.3,290.0,2.3,'11111222,11111222,11111222' 
TCOON,ioos:station:TCOON:524:1,2009-07-01T12:42:00Z,29.8672,-93.9310,0.0,0.2,297.0,1.7,'11111222,11111222,11111222' 
TCOON,ioos:station:TCOON:524:1,2009-07-01T12:48:00Z,29.8672,-93.9310,0.0,1.0,292.0,2.6,'11111222,11111222,11111222' 
TCOON,ioos:station:TCOON:524:1,2009-07-01T12:54:00Z,29.8672,-93.9310,0.0,1.3,289.0,1.9,'11111222,11111222,11111222' 
TCOON,ioos:station:TCOON:524:1,2009-07-01T13:00:00Z,29.8672,-93.9310,0.0,1.4,303.0,2.9,'11111222,11111222,11111222' 
TCOON,ioos:station:TCOON:524:1,2009-07-01T13:06:00Z,29.8672,-93.9310,0.0,0.6,297.0,1.8,'11111222,11111222,11111222' 
TCOON,ioos:station:TCOON:524:1,2009-07-01T13:12:00Z,29.8672,-93.9310,0.0,0.1,281.0,1.4,'11111222,11111222,11111222' 
TCOON,ioos:station:TCOON:524:1,2009-07-01T13:18:00Z,29.8672,-93.9310,0.0,0.0,291.0,1.0,'11111222,11111222,11111222' 
TCOON,ioos:station:TCOON:524:1,2009-07-01T13:24:00Z,29.8672,-93.9310,0.0,0.0,282.0,99.0,'11111222,11111222,11144222' 
TCOON,ioos:station:TCOON:524:1,2009-07-01T13:30:00Z,29.8672,-93.9310,0.0,0.0,279.0,99.0,'11111222,11111222,11144222' 
TCOON,ioos:station:TCOON:524:1,2009-07-01T13:36:00Z,29.8672,-93.9310,0.0,0.0,296.0,0.5,'11111222,11111222,11111222' 
TCOON,ioos:station:TCOON:524:1,2009-07-01T13:42:00Z,29.8672,-93.9310,0.0,0.0,302.0,99.0,'11111222,11111222,11144222' 
TCOON,ioos:station:TCOON:524:1,2009-07-01T13:48:00Z,29.8672,-93.9310,0.0,0.0,307.0,99.0,'11111222,11111222,11144222' 
TCOON,ioos:station:TCOON:524:1,2009-07-01T13:54:00Z,29.8672,-93.9310,0.0,0.0,283.0,99.0,'11111222,11111222,11144222' 
TCOON,ioos:station:TCOON:524:1,2009-07-01T14:00:00Z,29.8672,-93.9310,0.0,0.0,290.0,99.0,'11111222,11111222,11144222' 
TCOON,ioos:station:TCOON:524:1,2009-07-01T14:06:00Z,29.8672,-93.9310,0.0,0.4,290.0,1.4,'11111222,11111222,11111222' 
TCOON,ioos:station:TCOON:524:1,2009-07-01T14:12:00Z,29.8672,-93.9310,0.0,0.4,291.0,1.5,'11111222,11111222,11111222' 
TCOON,ioos:station:TCOON:524:1,2009-07-01T14:18:00Z,29.8672,-93.9310,0.0,0.0,285.0,99.0,'11111222,11111222,11144222' 
TCOON,ioos:station:TCOON:524:1,2009-07-01T14:24:00Z,29.8672,-93.9310,0.0,0.0,301.0,99.0,'11111222,11111222,11144222' 
TCOON,ioos:station:TCOON:524:1,2009-07-01T14:30:00Z,29.8672,-93.9310,0.0,0.0,337.0,99.0,'11111222,11111222,11144222' 
TCOON,ioos:station:TCOON:524:1,2009-07-01T14:36:00Z,29.8672,-93.9310,0.0,0.0,316.0,99.0,'11111222,11111222,11144222' 
TCOON,ioos:station:TCOON:524:1,2009-07-01T14:42:00Z,29.8672,-93.9310,0.0,0.0,279.0,99.0,'11111222,11111222,11144222' 
TCOON,ioos:station:TCOON:524:1,2009-07-01T14:48:00Z,29.8672,-93.9310,0.0,0.0,356.0,99.0,'11111222,11111222,11144222' 
TCOON,ioos:station:TCOON:524:1,2009-07-01T14:54:00Z,29.8672,-93.9310,0.0,0.0,295.0,99.0,'11111222,11111222,11144222' 
TCOON,ioos:station:TCOON:524:1,2009-07-01T15:00:00Z,29.8672,-93.9310,0.0,0.0,351.0,99.0,'11111222,11111222,11144222' 
TCOON,ioos:station:TCOON:524:1,2009-07-01T15:06:00Z,29.8672,-93.9310,0.0,0.0,337.0,99.0,'11111222,11111222,11144222' 
TCOON,ioos:station:TCOON:524:1,2009-07-01T15:12:00Z,29.8672,-93.9310,0.0,0.0,348.0,99.0,'11111222,11111222,11144222' 
TCOON,ioos:station:TCOON:524:1,2009-07-01T15:18:00Z,29.8672,-93.9310,0.0,0.0,239.0,99.0,'11111222,11111222,11144222' 
TCOON,ioos:station:TCOON:524:1,2009-07-01T15:24:00Z,29.8672,-93.9310,0.0,0.0,251.0,99.0,'11111222,11111222,11144222' 
TCOON,ioos:station:TCOON:524:1,2009-07-01T15:30:00Z,29.8672,-93.9310,0.0,0.0,214.0,99.0,'11111222,11111222,11144222' 
TCOON,ioos:station:TCOON:524:1,2009-07-01T15:36:00Z,29.8672,-93.9310,0.0,0.0,236.0,99.0,'11111222,11111222,11144222' 
TCOON,ioos:station:TCOON:524:1,2009-07-01T15:42:00Z,29.8672,-93.9310,0.0,0.0,165.0,99.0,'11111222,11111222,11144222' 
TCOON,ioos:station:TCOON:524:1,2009-07-01T15:48:00Z,29.8672,-93.9310,0.0,0.0,213.0,99.0,'11111222,11111222,11144222' 
TCOON,ioos:station:TCOON:524:1,2009-07-01T15:54:00Z,29.8672,-93.9310,0.0,0.0,211.0,0.2,'11111222,11111222,11111222' 
TCOON,ioos:station:TCOON:524:1,2009-07-01T16:00:00Z,29.8672,-93.9310,0.0,0.0,209.0,0.3,'11111222,11111222,11111222' 
TCOON,ioos:station:TCOON:524:1,2009-07-01T16:06:00Z,29.8672,-93.9310,0.0,0.0,213.0,99.0,'11111222,11111222,11144222' 
TCOON,ioos:station:TCOON:524:1,2009-07-01T16:12:00Z,29.8672,-93.9310,0.0,0.0,216.0,99.0,'11111222,11111222,11144222' 
TCOON,ioos:station:TCOON:524:1,2009-07-01T16:18:00Z,29.8672,-93.9310,0.0,0.0,192.0,99.0,'11111222,11111222,11144222' 
TCOON,ioos:station:TCOON:524:1,2009-07-01T16:24:00Z,29.8672,-93.9310,0.0,0.0,210.0,99.0,'11111222,11111222,11144222' 
TCOON,ioos:station:TCOON:524:1,2009-07-01T16:30:00Z,29.8672,-93.9310,0.0,0.0,218.0,99.0,'11111222,11111222,11144222' 
TCOON,ioos:station:TCOON:524:1,2009-07-01T16:36:00Z,29.8672,-93.9310,0.0,0.0,182.0,99.0,'11111222,11111222,11144222' 
TCOON,ioos:station:TCOON:524:1,2009-07-01T16:42:00Z,29.8672,-93.9310,0.0,0.0,186.0,99.0,'11111222,11111222,11144222' 
TCOON,ioos:station:TCOON:524:1,2009-07-01T16:48:00Z,29.8672,-93.9310,0.0,0.0,180.0,99.0,'11111222,11111222,11144222' 
TCOON,ioos:station:TCOON:524:1,2009-07-01T16:54:00Z,29.8672,-93.9310,0.0,0.0,208.0,99.0,'11111222,11111222,11144222' 
TCOON,ioos:station:TCOON:524:1,2009-07-01T17:00:00Z,29.8672,-93.9310,0.0,0.0,150.0,99.0,'11111222,11111222,11144222' 
TCOON,ioos:station:TCOON:524:1,2009-07-01T17:06:00Z,29.8672,-93.9310,0.0,0.0,248.0,99.0,'11111222,11111222,11144222' 
TCOON,ioos:station:TCOON:524:1,2009-07-01T17:12:00Z,29.8672,-93.9310,0.0,0.1,136.0,0.9,'11111222,11111222,11111222' 
TCOON,ioos:station:TCOON:524:1,2009-07-01T17:18:00Z,29.8672,-93.9310,0.0,0.6,128.0,1.6,'11111222,11111222,11111222' 
TCOON,ioos:station:TCOON:524:1,2009-07-01T17:24:00Z,29.8672,-93.9310,0.0,0.1,124.0,1.0,'11111222,11111222,11111222' 
TCOON,ioos:station:TCOON:524:1,2009-07-01T17:30:00Z,29.8672,-93.9310,0.0,1.4,113.0,2.9,'11111222,11111222,11111222' 
TCOON,ioos:station:TCOON:524:1,2009-07-01T17:36:00Z,29.8672,-93.9310,0.0,0.8,108.0,2.5,'11111222,11111222,11111222' 
TCOON,ioos:station:TCOON:524:1,2009-07-01T17:42:00Z,29.8672,-93.9310,0.0,0.8,106.0,3.0,'11111222,11111222,11111222' 
TCOON,ioos:station:TCOON:524:1,2009-07-01T17:48:00Z,29.8672,-93.9310,0.0,1.7,115.0,3.0,'11111222,11111222,11111222' 
TCOON,ioos:station:TCOON:524:1,2009-07-01T17:54:00Z,29.8672,-93.9310,0.0,0.8,113.0,2.1,'11111222,11111222,11111222' 
TCOON,ioos:station:TCOON:524:1,2009-07-01T18:00:00Z,29.8672,-93.9310,0.0,1.7,103.0,3.4,'11111222,11111222,11111222' 
TCOON,ioos:station:TCOON:524:1,2009-07-01T18:06:00Z,29.8672,-93.9310,0.0,1.9,94.0,2.8,'11111222,11111222,11111222' 
TCOON,ioos:station:TCOON:524:1,2009-07-01T18:12:00Z,29.8672,-93.9310,0.0,2.4,95.0,3.2,'11111222,11111222,11111222' 
TCOON,ioos:station:TCOON:524:1,2009-07-01T18:18:00Z,29.8672,-93.9310,0.0,1.9,94.0,3.2,'11111222,11111222,11111222' 
TCOON,ioos:station:TCOON:524:1,2009-07-01T18:24:00Z,29.8672,-93.9310,0.0,1.9,95.0,2.7,'11111222,11111222,11111222' 
TCOON,ioos:station:TCOON:524:1,2009-07-01T18:30:00Z,29.8672,-93.9310,0.0,2.1,98.0,3.0,'11111222,11111222,11111222' 
TCOON,ioos:station:TCOON:524:1,2009-07-01T18:36:00Z,29.8672,-93.9310,0.0,1.6,102.0,2.8,'11111222,11111222,11111222' 
TCOON,ioos:station:TCOON:524:1,2009-07-01T18:42:00Z,29.8672,-93.9310,0.0,1.3,96.0,2.7,'11111222,11111222,11111222' 
TCOON,ioos:station:TCOON:524:1,2009-07-01T18:48:00Z,29.8672,-93.9310,0.0,1.7,96.0,3.0,'11111222,11111222,11111222' 
TCOON,ioos:station:TCOON:524:1,2009-07-01T18:54:00Z,29.8672,-93.9310,0.0,0.9,102.0,1.9,'11111222,11111222,11111222' 
TCOON,ioos:station:TCOON:524:1,2009-07-01T19:00:00Z,29.8672,-93.9310,0.0,0.2,85.0,1.4,'11111222,11111222,11111222' 
TCOON,ioos:station:TCOON:524:1,2009-07-01T19:06:00Z,29.8672,-93.9310,0.0,1.2,93.0,2.1,'11111222,11111222,11111222' 
TCOON,ioos:station:TCOON:524:1,2009-07-01T19:12:00Z,29.8672,-93.9310,0.0,1.5,97.0,2.4,'11111222,11111222,11111222' 
TCOON,ioos:station:TCOON:524:1,2009-07-01T19:18:00Z,29.8672,-93.9310,0.0,0.1,111.0,1.0,'11111222,11111222,11111222' 
TCOON,ioos:station:TCOON:524:1,2009-07-01T19:24:00Z,29.8672,-93.9310,0.0,0.4,97.0,1.4,'11111222,11111222,11111222' 
TCOON,ioos:station:TCOON:524:1,2009-07-01T19:30:00Z,29.8672,-93.9310,0.0,0.0,110.0,99.0,'11111222,11111222,11144222' 
TCOON,ioos:station:TCOON:524:1,2009-07-01T19:36:00Z,29.8672,-93.9310,0.0,0.0,119.0,99.0,'11111222,11111222,11144222' 
TCOON,ioos:station:TCOON:524:1,2009-07-01T19:42:00Z,29.8672,-93.9310,0.0,0.0,197.0,99.0,'11111222,11111222,11144222' 
TCOON,ioos:station:TCOON:524:1,2009-07-01T19:48:00Z,29.8672,-93.9310,0.0,2.4,332.0,4.5,'11111222,11111222,11111222' 
TCOON,ioos:station:TCOON:524:1,2009-07-01T19:54:00Z,29.8672,-93.9310,0.0,0.3,51.0,1.8,'11111222,11111222,11111222' 
TCOON,ioos:station:TCOON:524:1,2009-07-01T20:00:00Z,29.8672,-93.9310,0.0,0.6,57.0,2.4,'11111222,11111222,11111222' 
TCOON,ioos:station:TCOON:524:1,2009-07-01T20:06:00Z,29.8672,-93.9310,0.0,0.5,67.0,1.9,'11111222,11111222,11111222' 
TCOON,ioos:station:TCOON:524:1,2009-07-01T20:12:00Z,29.8672,-93.9310,0.0,0.2,74.0,2.2,'11111222,11111222,11111222' 
TCOON,ioos:station:TCOON:524:1,2009-07-01T20:18:00Z,29.8672,-93.9310,0.0,0.0,8.0,99.0,'11111222,11111222,11144222' 
TCOON,ioos:station:TCOON:524:1,2009-07-01T20:24:00Z,29.8672,-93.9310,0.0,0.9,333.0,3.3,'11111222,11111222,11111222' 
TCOON,ioos:station:TCOON:524:1,2009-07-01T20:30:00Z,29.8672,-93.9310,0.0,2.8,330.0,3.7,'11111222,11111222,11111222' 
TCOON,ioos:station:TCOON:524:1,2009-07-01T20:36:00Z,29.8672,-93.9310,0.0,2.8,345.0,3.9,'11111222,11111222,11111222' 
TCOON,ioos:station:TCOON:524:1,2009-07-01T20:42:00Z,29.8672,-93.9310,0.0,2.6,325.0,3.7,'11111222,11111222,11111222' 
TCOON,ioos:station:TCOON:524:1,2009-07-01T20:48:00Z,29.8672,-93.9310,0.0,0.9,324.0,1.9,'11111222,11111222,11111222' 
TCOON,ioos:station:TCOON:524:1,2009-07-01T20:54:00Z,29.8672,-93.9310,0.0,0.9,3.0,2.4,'11111222,11111222,11111222' 
TCOON,ioos:station:TCOON:524:1,2009-07-01T21:00:00Z,29.8672,-93.9310,0.0,0.0,5.0,99.0,'11111222,11111222,11144222' 
TCOON,ioos:station:TCOON:524:1,2009-07-01T21:06:00Z,29.8672,-93.9310,0.0,0.0,345.0,99.0,'11111222,11111222,11144222' 
TCOON,ioos:station:TCOON:524:1,2009-07-01T21:12:00Z,29.8672,-93.9310,0.0,0.0,24.0,99.0,'11111222,11111222,11144222' 